Time,TemperatureF,DewpointF,PressureIn,WindDirection,WindDirectionDegrees,WindSpeedMPH,WindSpeedGustMPH,Humidity,HourlyPrecipIn,Conditions,Clouds,dailyrainin,SoftwareType,DateUTC
2013-06-04 00:02:00,55.2,44.4,30.00,East,90,0.0,17.5,67,0.00,,,0.00,WUHU216HW,2013-06-04 05:02:00,
2013-06-04 00:07:00,55.2,44.4,30.01,SE,135,0.0,17.5,67,0.00,,,0.00,WUHU216HW,2013-06-04 05:07:00,
2013-06-04 00:12:00,55.0,44.6,30.01,NE,45,0.0,6.6,68,0.00,,,0.00,WUHU216HW,2013-06-04 05:12:00,
2013-06-04 00:17:00,54.6,44.3,30.01,East,90,8.4,8.4,68,0.00,,,0.00,WUHU216HW,2013-06-04 05:17:00,
2013-06-04 00:22:00,54.6,44.7,30.01,East,90,4.1,8.9,69,0.00,,,0.00,WUHU216HW,2013-06-04 05:22:00,
2013-06-04 00:27:00,54.6,44.7,30.00,East,90,11.4,11.4,69,0.00,,,0.00,WUHU216HW,2013-06-04 05:27:00,
2013-06-04 00:32:00,54.6,44.7,30.00,East,90,11.4,12.5,69,0.00,,,0.00,WUHU216HW,2013-06-04 05:32:00,
2013-06-04 00:37:00,54.6,45.1,30.00,East,90,12.3,14.5,70,0.00,,,0.00,WUHU216HW,2013-06-04 05:37:00,
2013-06-04 00:42:00,54.6,45.4,30.00,ESE,113,15.0,17.0,71,0.00,,,0.00,WUHU216HW,2013-06-04 05:42:00,
2013-06-04 00:47:00,54.5,45.3,29.99,ENE,68,16.1,17.0,71,0.00,,,0.00,WUHU216HW,2013-06-04 05:47:00,
2013-06-04 00:52:00,54.3,45.4,29.99,ENE,68,17.0,17.0,72,0.00,,,0.00,WUHU216HW,2013-06-04 05:52:00,
2013-06-04 00:57:00,54.1,45.3,29.99,ESE,113,17.9,17.9,72,0.00,,,0.00,WUHU216HW,2013-06-04 05:57:00,
2013-06-04 01:02:00,53.9,45.4,29.99,ESE,113,9.8,17.9,73,0.00,,,0.00,WUHU216HW,2013-06-04 06:02:00,
2013-06-04 01:07:00,53.7,45.3,30.00,East,90,11.7,15.0,73,0.00,,,0.00,WUHU216HW,2013-06-04 06:07:00,
2013-06-04 01:12:00,53.7,45.6,29.99,East,90,16.8,16.8,74,0.00,,,0.00,WUHU216HW,2013-06-04 06:12:00,
2013-06-04 01:17:00,53.7,45.6,29.98,ENE,75,8.4,16.8,74,0.00,,,0.00,WUHU216HW,2013-06-04 06:17:00,
2013-06-04 01:22:00,53.7,45.6,29.98,East,90,14.5,14.5,74,0.00,,,0.00,WUHU216HW,2013-06-04 06:22:00,
2013-06-04 01:27:00,53.7,45.3,29.97,ESE,113,10.3,14.5,73,0.00,,,0.00,WUHU216HW,2013-06-04 06:27:00,
2013-06-04 01:32:00,53.7,44.9,29.97,ESE,113,9.0,14.5,72,0.00,,,0.00,WUHU216HW,2013-06-04 06:32:00,
2013-06-04 01:37:00,53.7,45.3,29.97,East,90,10.3,10.3,73,0.00,,,0.00,WUHU216HW,2013-06-04 06:37:00,
2013-06-04 01:42:00,53.9,45.1,29.96,East,90,19.5,19.5,72,0.00,,,0.00,WUHU216HW,2013-06-04 06:42:00,
2013-06-04 01:47:00,53.9,45.4,29.97,East,90,9.1,19.5,73,0.00,,,0.00,WUHU216HW,2013-06-04 06:47:00,
2013-06-04 01:52:00,53.9,45.4,29.96,NE,45,15.0,15.0,73,0.00,,,0.00,WUHU216HW,2013-06-04 06:52:00,
2013-06-04 01:57:00,53.9,45.4,29.96,East,90,2.5,15.0,73,0.00,,,0.00,WUHU216HW,2013-06-04 06:57:00,
2013-06-04 02:02:00,53.9,45.4,29.96,ESE,113,10.9,15.0,73,0.00,,,0.00,WUHU216HW,2013-06-04 07:02:00,
2013-06-04 02:07:00,54.1,46.0,29.96,SSE,148,15.7,24.5,74,0.00,,,0.00,WUHU216HW,2013-06-04 07:07:00,
2013-06-04 02:12:00,54.1,46.0,29.96,East,90,4.1,24.5,74,0.00,,,0.00,WUHU216HW,2013-06-04 07:12:00,
2013-06-04 02:17:00,53.9,45.8,29.96,SE,135,0.5,10.9,74,0.00,,,0.00,WUHU216HW,2013-06-04 07:17:00,
2013-06-04 02:22:00,53.7,46.0,29.97,East,80,11.9,12.3,75,0.00,,,0.00,WUHU216HW,2013-06-04 07:22:00,
2013-06-04 02:27:00,53.7,45.6,29.99,East,90,2.1,12.3,74,0.00,,,0.00,WUHU216HW,2013-06-04 07:27:00,
2013-06-04 02:32:00,53.7,45.6,30.01,NE,45,0.0,11.6,74,0.00,,,0.00,WUHU216HW,2013-06-04 07:32:00,
2013-06-04 02:37:00,53.4,45.3,30.01,NNE,23,8.0,11.6,74,0.00,,,0.00,WUHU216HW,2013-06-04 07:37:00,
2013-06-04 02:42:00,53.2,45.5,30.01,NNE,23,1.6,11.6,75,0.00,,,0.00,WUHU216HW,2013-06-04 07:42:00,
2013-06-04 02:47:00,52.8,45.1,30.00,East,90,8.4,9.5,75,0.00,,,0.00,WUHU216HW,2013-06-04 07:47:00,
2013-06-04 02:52:00,52.7,45.6,29.99,East,90,9.2,9.8,77,0.00,,,0.00,WUHU216HW,2013-06-04 07:52:00,
2013-06-04 02:57:00,52.7,45.6,29.98,East,90,10.6,10.6,77,0.00,,,0.00,WUHU216HW,2013-06-04 07:57:00,
2013-06-04 03:02:00,52.8,46.2,29.98,East,90,6.4,13.1,78,0.00,,,0.00,WUHU216HW,2013-06-04 08:02:00,
2013-06-04 03:07:00,53.2,46.2,29.98,SE,135,12.0,13.1,77,0.00,,,0.00,WUHU216HW,2013-06-04 08:07:00,
2013-06-04 03:12:00,53.4,46.0,29.98,ESE,113,10.3,13.4,76,0.00,,,0.00,WUHU216HW,2013-06-04 08:12:00,
2013-06-04 03:17:00,53.6,46.0,29.98,East,90,12.0,13.4,76,0.00,,,0.00,WUHU216HW,2013-06-04 08:17:00,
2013-06-04 03:22:00,53.6,46.2,29.98,East,90,15.6,17.0,76,0.00,,,0.00,WUHU216HW,2013-06-04 08:22:00,
2013-06-04 03:27:00,53.6,46.2,29.98,East,90,9.5,17.0,76,0.00,,,0.00,WUHU216HW,2013-06-04 08:27:00,
2013-06-04 03:32:00,53.4,46.4,29.98,ESE,113,12.7,16.8,77,0.00,,,0.00,WUHU216HW,2013-06-04 08:32:00,
2013-06-04 03:37:00,53.4,46.4,29.98,ESE,102,11.9,15.9,77,0.00,,,0.00,WUHU216HW,2013-06-04 08:37:00,
2013-06-04 03:42:00,53.2,46.2,29.99,East,90,8.0,12.5,77,0.00,,,0.00,WUHU216HW,2013-06-04 08:42:00,
2013-06-04 03:47:00,52.7,46.4,29.98,East,90,9.8,11.4,79,0.00,,,0.00,WUHU216HW,2013-06-04 08:47:00,
2013-06-04 03:52:00,52.5,46.5,29.98,East,90,13.1,13.1,80,0.00,,,0.00,WUHU216HW,2013-06-04 08:52:00,
2013-06-04 03:57:00,52.5,46.5,29.97,SE,135,13.4,13.4,80,0.00,,,0.00,WUHU216HW,2013-06-04 08:57:00,
2013-06-04 04:02:00,52.5,46.5,29.98,ESE,117,9.4,17.0,80,0.00,,,0.00,WUHU216HW,2013-06-04 09:02:00,
2013-06-04 04:07:00,52.5,46.2,29.98,East,90,14.3,17.0,79,0.00,,,0.00,WUHU216HW,2013-06-04 09:07:00,
2013-06-04 04:12:00,52.5,46.2,29.97,ESE,113,9.4,14.3,79,0.00,,,0.00,WUHU216HW,2013-06-04 09:12:00,
2013-06-04 04:17:00,52.5,46.5,29.97,East,90,13.6,13.6,80,0.00,,,0.00,WUHU216HW,2013-06-04 09:17:00,
2013-06-04 04:22:00,52.5,46.5,29.97,SE,135,10.9,13.6,80,0.00,,,0.00,WUHU216HW,2013-06-04 09:22:00,
2013-06-04 04:27:00,52.3,46.4,29.97,East,90,18.6,18.6,80,0.00,,,0.00,WUHU216HW,2013-06-04 09:27:00,
2013-06-04 04:32:00,52.5,46.8,29.97,East,90,12.1,18.6,81,0.00,,,0.00,WUHU216HW,2013-06-04 09:32:00,
2013-06-04 04:37:00,52.5,46.5,29.96,ENE,68,8.9,18.6,80,0.00,,,0.00,WUHU216HW,2013-06-04 09:37:00,
2013-06-04 04:42:00,52.5,46.5,29.97,ESE,113,9.1,12.3,80,0.00,,,0.00,WUHU216HW,2013-06-04 09:42:00,
2013-06-04 04:47:00,52.3,46.7,29.97,ESE,113,13.1,13.1,81,0.00,,,0.00,WUHU216HW,2013-06-04 09:47:00,
2013-06-04 04:52:00,52.3,46.4,29.96,ESE,113,9.1,13.1,80,0.00,,,0.00,WUHU216HW,2013-06-04 09:52:00,
2013-06-04 04:57:00,52.1,46.4,29.96,East,90,12.3,13.1,80,0.00,,,0.00,WUHU216HW,2013-06-04 09:57:00,
2013-06-04 05:02:00,52.1,46.5,29.97,ESE,113,5.3,13.9,81,0.00,,,0.00,WUHU216HW,2013-06-04 10:02:00,
2013-06-04 05:07:00,52.1,46.5,29.97,East,90,10.6,13.9,81,0.00,,,0.00,WUHU216HW,2013-06-04 10:07:00,
2013-06-04 05:12:00,52.1,46.5,29.98,East,90,10.2,13.1,81,0.00,,,0.00,WUHU216HW,2013-06-04 10:12:00,
2013-06-04 05:17:00,52.1,46.5,29.97,ESE,113,7.3,13.1,81,0.00,,,0.00,WUHU216HW,2013-06-04 10:17:00,
2013-06-04 05:22:00,52.1,46.5,29.97,East,90,6.4,7.5,81,0.00,,,0.00,WUHU216HW,2013-06-04 10:22:00,
2013-06-04 05:27:00,52.3,46.4,29.97,East,90,5.1,7.3,80,0.00,,,0.00,WUHU216HW,2013-06-04 10:27:00,
2013-06-04 05:32:00,52.5,46.5,29.97,East,90,5.8,6.9,80,0.00,,,0.00,WUHU216HW,2013-06-04 10:32:00,
2013-06-04 05:37:00,52.7,46.7,29.97,East,90,6.9,6.9,80,0.00,,,0.00,WUHU216HW,2013-06-04 10:37:00,
2013-06-04 05:42:00,52.8,46.5,29.97,ESE,113,5.8,6.9,80,0.00,,,0.00,WUHU216HW,2013-06-04 10:42:00,
2013-06-04 05:47:00,53.2,46.9,29.97,East,90,10.0,10.0,79,0.00,,,0.00,WUHU216HW,2013-06-04 10:47:00,
2013-06-04 05:52:00,53.2,46.9,29.97,East,90,6.4,10.0,79,0.00,,,0.00,WUHU216HW,2013-06-04 10:52:00,
2013-06-04 05:57:00,53.2,46.5,29.97,ESE,113,5.7,10.0,78,0.00,,,0.00,WUHU216HW,2013-06-04 10:57:00,
2013-06-04 06:02:00,53.4,46.7,29.97,East,90,6.6,8.0,78,0.00,,,0.00,WUHU216HW,2013-06-04 11:02:00,
2013-06-04 06:07:00,53.4,46.7,29.97,East,90,8.9,8.9,78,0.00,,,0.00,WUHU216HW,2013-06-04 11:07:00,
2013-06-04 06:12:00,53.4,46.7,29.97,East,90,8.4,8.9,78,0.00,,,0.00,WUHU216HW,2013-06-04 11:12:00,
2013-06-04 06:17:00,53.4,46.7,29.97,ESE,113,7.3,8.4,78,0.00,,,0.00,WUHU216HW,2013-06-04 11:17:00,
2013-06-04 06:22:00,53.4,46.7,29.97,ESE,113,5.3,8.4,78,0.00,,,0.00,WUHU216HW,2013-06-04 11:22:00,
2013-06-04 06:27:00,53.4,46.7,29.97,ESE,113,10.3,11.6,78,0.00,,,0.00,WUHU216HW,2013-06-04 11:27:00,
2013-06-04 06:32:00,53.7,47.1,29.97,ENE,68,6.4,11.6,78,0.00,,,0.00,WUHU216HW,2013-06-04 11:32:00,
2013-06-04 06:37:00,53.7,47.1,29.97,East,90,7.5,10.3,78,0.00,,,0.00,WUHU216HW,2013-06-04 11:37:00,
2013-06-04 06:42:00,53.7,47.1,29.97,East,90,7.6,9.5,78,0.00,,,0.00,WUHU216HW,2013-06-04 11:42:00,
2013-06-04 06:47:00,53.9,47.2,29.97,ESE,123,4.7,9.5,78,0.00,,,0.00,WUHU216HW,2013-06-04 11:47:00,
2013-06-04 06:52:00,54.1,47.4,29.97,SE,135,4.1,6.9,78,0.00,,,0.00,WUHU216HW,2013-06-04 11:52:00,
2013-06-04 06:57:00,54.1,47.0,29.97,ESE,113,6.9,6.9,77,0.00,,,0.00,WUHU216HW,2013-06-04 11:57:00,
2013-06-04 07:02:00,54.1,47.0,29.98,SE,135,11.1,11.1,77,0.00,,,0.00,WUHU216HW,2013-06-04 12:02:00,
2013-06-04 07:07:00,54.3,47.5,29.98,East,90,5.0,11.1,78,0.00,,,0.00,WUHU216HW,2013-06-04 12:07:00,
2013-06-04 07:12:00,54.3,47.5,29.98,East,90,6.9,11.1,78,0.00,,,0.00,WUHU216HW,2013-06-04 12:12:00,
2013-06-04 07:17:00,54.3,47.5,29.98,ESE,113,5.5,8.0,78,0.00,,,0.00,WUHU216HW,2013-06-04 12:17:00,
2013-06-04 07:22:00,54.5,47.7,29.98,East,90,6.1,7.8,78,0.00,,,0.00,WUHU216HW,2013-06-04 12:22:00,
2013-06-04 07:27:00,54.6,47.9,29.98,East,90,8.4,8.4,78,0.00,,,0.00,WUHU216HW,2013-06-04 12:27:00,
2013-06-04 07:32:00,54.6,47.9,29.98,East,90,6.1,8.9,78,0.00,,,0.00,WUHU216HW,2013-06-04 12:32:00,
2013-06-04 07:37:00,54.6,47.9,29.98,East,90,7.5,8.9,78,0.00,,,0.00,WUHU216HW,2013-06-04 12:37:00,
2013-06-04 07:42:00,54.6,47.9,29.98,SSE,158,11.1,11.1,78,0.00,,,0.00,WUHU216HW,2013-06-04 12:42:00,
2013-06-04 07:47:00,54.6,47.9,29.98,SE,135,6.6,11.1,78,0.00,,,0.00,WUHU216HW,2013-06-04 12:47:00,
2013-06-04 07:52:00,54.6,47.9,29.98,ENE,68,6.4,11.1,78,0.00,,,0.00,WUHU216HW,2013-06-04 12:52:00,
2013-06-04 07:57:00,54.6,47.9,29.98,East,101,7.4,7.8,78,0.00,,,0.00,WUHU216HW,2013-06-04 12:57:00,
2013-06-04 08:02:00,54.6,47.9,29.98,East,90,7.8,10.3,78,0.00,,,0.00,WUHU216HW,2013-06-04 13:02:00,
2013-06-04 08:07:00,54.8,48.0,29.98,East,90,1.4,10.3,78,0.00,,,0.00,WUHU216HW,2013-06-04 13:07:00,
2013-06-04 08:12:00,55.2,48.4,29.98,ESE,113,10.0,10.0,78,0.00,,,0.00,WUHU216HW,2013-06-04 13:12:00,
2013-06-04 08:17:00,55.2,48.4,29.98,ESE,113,6.4,10.0,78,0.00,,,0.00,WUHU216HW,2013-06-04 13:17:00,
2013-06-04 08:23:00,55.2,48.0,29.98,ESE,113,7.5,10.0,77,0.00,,,0.00,WUHU216HW,2013-06-04 13:23:00,
2013-06-04 08:27:00,55.2,48.4,29.98,East,90,8.6,8.6,78,0.00,,,0.00,WUHU216HW,2013-06-04 13:27:00,
2013-06-04 08:32:00,55.0,48.2,29.98,ESE,113,8.6,8.6,78,0.00,,,0.00,WUHU216HW,2013-06-04 13:32:00,
2013-06-04 08:37:00,54.8,48.4,29.98,ESE,113,8.6,8.6,79,0.00,,,0.00,WUHU216HW,2013-06-04 13:37:00,
2013-06-04 08:43:00,54.6,48.2,29.98,East,90,8.9,8.9,79,0.00,,,0.00,WUHU216HW,2013-06-04 13:43:00,
2013-06-04 08:48:00,54.5,48.2,29.98,East,90,8.6,8.9,80,0.00,,,0.00,WUHU216HW,2013-06-04 13:48:00,
2013-06-04 08:53:00,54.5,48.4,29.98,East,90,5.0,9.5,80,0.00,,,0.00,WUHU216HW,2013-06-04 13:53:00,
2013-06-04 08:58:00,54.3,48.6,29.98,ESE,113,9.8,9.8,81,0.00,,,0.00,WUHU216HW,2013-06-04 13:58:00,
2013-06-04 09:03:00,54.3,48.6,29.99,ESE,113,4.1,9.8,81,0.00,,,0.00,WUHU216HW,2013-06-04 14:03:00,
2013-06-04 09:08:00,54.3,48.6,29.99,SE,135,2.8,9.8,81,0.00,,,0.00,WUHU216HW,2013-06-04 14:08:00,
2013-06-04 09:13:00,54.5,48.7,29.99,East,90,7.5,7.8,81,0.00,,,0.00,WUHU216HW,2013-06-04 14:13:00,
2013-06-04 09:18:00,54.6,48.9,29.99,ESE,113,6.9,7.5,81,0.00,,,0.00,WUHU216HW,2013-06-04 14:18:00,
2013-06-04 09:23:00,54.6,48.9,29.99,East,90,5.3,7.5,81,0.00,,,0.00,WUHU216HW,2013-06-04 14:23:00,
2013-06-04 09:28:00,54.8,49.1,30.00,East,90,3.3,6.9,81,0.00,,,0.00,WUHU216HW,2013-06-04 14:28:00,
2013-06-04 09:33:00,55.2,49.4,30.00,ESE,113,0.0,6.4,81,0.00,,,0.00,WUHU216HW,2013-06-04 14:33:00,
2013-06-04 09:38:00,55.4,49.6,30.00,ESE,113,7.3,7.3,81,0.00,,,0.00,WUHU216HW,2013-06-04 14:38:00,
2013-06-04 09:43:00,55.4,49.6,30.00,East,90,1.5,7.3,81,0.00,,,0.00,WUHU216HW,2013-06-04 14:43:00,
2013-06-04 09:48:00,55.5,49.7,30.00,ESE,113,6.6,6.6,81,0.00,,,0.00,WUHU216HW,2013-06-04 14:48:00,
2013-06-04 09:53:00,55.7,49.9,30.00,SE,135,7.3,7.3,81,0.00,,,0.00,WUHU216HW,2013-06-04 14:53:00,
2013-06-04 09:58:00,55.9,50.4,30.00,SE,129,2.9,7.3,82,0.00,,,0.00,WUHU216HW,2013-06-04 14:58:00,
2013-06-04 10:03:00,55.9,50.4,30.00,ESE,113,7.3,7.3,82,0.00,,,0.00,WUHU216HW,2013-06-04 15:03:00,
2013-06-04 10:08:00,56.1,50.3,29.99,SE,135,4.8,7.3,81,0.00,,,0.00,WUHU216HW,2013-06-04 15:08:00,
2013-06-04 10:13:00,56.3,50.5,29.99,ESE,123,4.3,9.1,81,0.00,,,0.00,WUHU216HW,2013-06-04 15:13:00,
2013-06-04 10:18:00,56.4,50.6,29.99,SE,135,2.1,9.1,81,0.00,,,0.00,WUHU216HW,2013-06-04 15:18:00,
2013-06-04 10:23:00,56.8,51.0,30.00,SE,135,0.0,3.9,81,0.00,,,0.00,WUHU216HW,2013-06-04 15:23:00,
2013-06-04 10:28:00,57.2,51.0,29.99,SSE,158,0.0,3.6,80,0.00,,,0.00,WUHU216HW,2013-06-04 15:28:00,
2013-06-04 10:33:00,57.3,51.5,30.00,SSE,158,0.0,8.0,81,0.00,,,0.00,WUHU216HW,2013-06-04 15:33:00,
2013-06-04 10:38:00,57.3,51.2,29.99,SE,135,0.0,8.0,80,0.00,,,0.00,WUHU216HW,2013-06-04 15:38:00,
2013-06-04 10:43:00,58.6,52.5,29.99,SE,135,3.9,3.9,80,0.00,,,0.00,WUHU216HW,2013-06-04 15:43:00,
2013-06-04 10:48:00,59.3,53.2,29.99,SE,135,0.0,3.9,80,0.00,,,0.00,WUHU216HW,2013-06-04 15:48:00,
2013-06-04 10:53:00,60.0,54.1,29.99,SE,135,4.4,4.4,78,0.00,,,0.00,WUHU216HW,2013-06-04 15:53:00,
2013-06-04 10:58:00,63.1,55.4,30.00,SSE,158,8.6,8.6,76,0.00,,,0.00,WUHU216HW,2013-06-04 15:58:00,
2013-06-04 11:03:00,63.6,54.8,29.99,SSE,158,5.3,8.6,73,0.00,,,0.00,WUHU216HW,2013-06-04 16:03:00,
2013-06-04 11:07:00,64.2,55.4,30.00,SE,135,6.6,8.6,73,0.00,,,0.00,WUHU216HW,2013-06-04 16:07:00,
2013-06-04 11:12:00,64.7,55.5,30.00,SSE,158,7.3,7.3,72,0.00,,,0.00,WUHU216HW,2013-06-04 16:12:00,
2013-06-04 11:17:00,65.8,56.1,30.00,SSE,158,5.8,7.3,71,0.00,,,0.00,WUHU216HW,2013-06-04 16:17:00,
2013-06-04 11:22:00,66.9,56.8,29.99,SSE,158,4.4,7.5,70,0.00,,,0.00,WUHU216HW,2013-06-04 16:22:00,
2013-06-04 11:27:00,68.5,57.5,29.99,SE,135,6.6,8.9,68,0.00,,,0.00,WUHU216HW,2013-06-04 16:27:00,
2013-06-04 11:32:00,68.9,57.4,29.99,SSE,158,12.0,12.0,67,0.00,,,0.00,WUHU216HW,2013-06-04 16:32:00,
2013-06-04 11:38:00,69.4,57.5,29.99,SE,135,8.9,12.0,66,0.00,,,0.00,WUHU216HW,2013-06-04 16:38:00,
2013-06-04 11:43:00,69.4,57.1,29.99,SSE,158,5.8,8.9,65,0.00,,,0.00,WUHU216HW,2013-06-04 16:43:00,
2013-06-04 11:47:00,69.8,57.8,29.99,SE,135,7.3,7.3,66,0.00,,,0.00,WUHU216HW,2013-06-04 16:47:00,
2013-06-04 11:52:00,70.5,58.1,29.99,SSE,158,6.6,7.5,65,0.00,,,0.00,WUHU216HW,2013-06-04 16:52:00,
2013-06-04 11:57:00,71.0,58.2,29.99,SSE,158,3.9,7.5,64,0.00,,,0.00,WUHU216HW,2013-06-04 16:57:00,
2013-06-04 12:02:00,71.0,57.8,29.99,ESE,113,5.0,6.6,63,0.00,,,0.00,WUHU216HW,2013-06-04 17:02:00,
2013-06-04 12:07:00,70.7,57.4,29.99,SSE,158,5.5,7.8,63,0.00,,,0.00,WUHU216HW,2013-06-04 17:07:00,
2013-06-04 12:12:00,70.8,58.0,29.99,SSE,158,13.4,13.4,64,0.00,,,0.00,WUHU216HW,2013-06-04 17:12:00,
2013-06-04 12:17:00,71.7,58.4,29.99,SSE,158,4.1,13.4,63,0.00,,,0.00,WUHU216HW,2013-06-04 17:17:00,
2013-06-04 12:22:00,72.1,57.9,29.99,SSE,158,12.3,13.4,61,0.00,,,0.00,WUHU216HW,2013-06-04 17:22:00,
2013-06-04 12:27:00,71.4,57.2,29.99,SE,135,10.0,12.3,61,0.00,,,0.00,WUHU216HW,2013-06-04 17:27:00,
2013-06-04 12:32:00,70.8,57.2,29.99,SSE,158,9.5,10.0,62,0.00,,,0.00,WUHU216HW,2013-06-04 17:32:00,
2013-06-04 12:39:00,70.3,57.1,29.99,SSE,158,10.3,10.3,63,0.00,,,0.00,WUHU216HW,2013-06-04 17:39:00,
2013-06-04 12:44:00,69.6,56.4,30.00,South,180,9.5,10.9,63,0.00,,,0.00,WUHU216HW,2013-06-04 17:44:00,
2013-06-04 12:49:00,69.8,56.6,30.00,SSW,203,8.6,10.9,63,0.00,,,0.00,WUHU216HW,2013-06-04 17:49:00,
2013-06-04 12:54:00,71.2,57.1,29.99,SW,216,7.1,8.6,61,0.00,,,0.00,WUHU216HW,2013-06-04 17:54:00,
2013-06-04 12:59:00,73.2,57.9,29.99,South,180,5.8,8.6,59,0.00,,,0.00,WUHU216HW,2013-06-04 17:59:00,
2013-06-04 13:04:00,74.1,58.3,29.99,SSW,203,5.5,8.0,58,0.00,,,0.00,WUHU216HW,2013-06-04 18:04:00,
2013-06-04 13:09:00,74.8,57.0,29.99,SSE,158,5.8,5.8,54,0.00,,,0.00,WUHU216HW,2013-06-04 18:09:00,
2013-06-04 13:14:00,74.4,57.2,29.99,SSE,158,1.0,5.8,55,0.00,,,0.00,WUHU216HW,2013-06-04 18:14:00,
2013-06-04 13:19:00,73.4,55.6,29.99,SSW,194,7.1,8.6,54,0.00,,,0.00,WUHU216HW,2013-06-04 18:19:00,
2013-06-04 13:24:00,73.4,55.6,29.99,South,180,5.5,8.6,54,0.00,,,0.00,WUHU216HW,2013-06-04 18:24:00,
2013-06-04 13:29:00,73.4,55.6,29.99,South,180,5.5,5.5,54,0.00,,,0.00,WUHU216HW,2013-06-04 18:29:00,
2013-06-04 13:34:00,73.4,55.6,29.99,South,180,5.5,5.5,54,0.00,,,0.00,WUHU216HW,2013-06-04 18:34:00,
2013-06-04 15:16:00,71.9,51.1,30.00,WSW,248,8.0,8.0,48,0.00,,,0.00,WUHU216HW,2013-06-04 20:16:00,
2013-06-04 15:21:00,71.9,51.1,30.00,WSW,248,8.0,8.0,48,0.00,,,0.00,WUHU216HW,2013-06-04 20:21:00,
2013-06-04 15:26:00,71.9,51.1,30.00,WSW,248,8.0,8.0,48,0.00,,,0.00,WUHU216HW,2013-06-04 20:26:00,
2013-06-04 15:31:00,73.9,52.3,30.00,SSW,203,7.3,8.0,47,0.00,,,0.00,WUHU216HW,2013-06-04 20:31:00,
2013-06-04 15:36:00,73.9,52.3,30.00,SSW,203,11.4,11.4,47,0.00,,,0.00,WUHU216HW,2013-06-04 20:36:00,
2013-06-04 15:41:00,73.9,52.3,30.00,SSW,203,11.4,11.4,47,0.00,,,0.00,WUHU216HW,2013-06-04 20:41:00,
2013-06-04 15:46:00,73.9,52.3,30.00,SSW,203,11.4,11.4,47,0.00,,,0.00,WUHU216HW,2013-06-04 20:46:00,
2013-06-04 16:16:00,73.7,51.5,29.99,SW,225,14.8,14.8,46,0.00,,,0.00,WUHU216HW,2013-06-04 21:16:00,
2013-06-04 16:21:00,73.7,51.5,29.99,SW,225,14.8,14.8,46,0.00,,,0.00,WUHU216HW,2013-06-04 21:21:00,
2013-06-04 16:26:00,73.7,51.5,29.99,SW,225,14.8,14.8,46,0.00,,,0.00,WUHU216HW,2013-06-04 21:26:00,
2013-06-04 16:31:00,73.7,51.5,30.00,SW,225,14.8,14.8,46,0.00,,,0.00,WUHU216HW,2013-06-04 21:31:00,
2013-06-04 16:55:00,71.0,50.9,29.99,WSW,248,13.1,13.1,49,0.00,,,0.00,WUHU216HW,2013-06-04 21:55:00,
2013-06-04 17:00:00,70.8,50.7,30.00,WSW,248,18.1,18.1,49,0.00,,,0.00,WUHU216HW,2013-06-04 22:00:00,
2013-06-04 17:05:00,69.4,50.1,29.99,WSW,248,19.8,20.4,50,0.00,,,0.00,WUHU216HW,2013-06-04 22:05:00,
2013-06-04 17:10:00,69.4,50.0,29.99,WSW,248,19.8,20.4,50,0.00,,,0.00,WUHU216HW,2013-06-04 22:10:00,
2013-06-04 17:15:00,69.4,50.5,29.99,WSW,248,13.4,19.8,51,0.00,,,0.00,WUHU216HW,2013-06-04 22:15:00,
2013-06-04 17:20:00,69.4,50.5,30.00,WSW,248,13.4,19.8,51,0.00,,,0.00,WUHU216HW,2013-06-04 22:20:00,
2013-06-04 17:25:00,69.4,50.5,30.00,WSW,248,15.0,15.0,51,0.00,,,0.00,WUHU216HW,2013-06-04 22:25:00,
2013-06-04 17:30:00,71.2,51.0,30.00,WSW,248,21.3,21.3,49,0.00,,,0.00,WUHU216HW,2013-06-04 22:30:00,
2013-06-04 17:35:00,72.5,51.0,29.99,SW,229,11.8,21.3,47,0.00,,,0.00,WUHU216HW,2013-06-04 22:35:00,
2013-06-04 17:40:00,73.0,50.3,29.99,SSW,203,15.6,18.6,45,0.00,,,0.00,WUHU216HW,2013-06-04 22:40:00,
2013-06-04 17:45:00,71.9,50.5,29.99,WSW,248,9.5,15.6,47,0.00,,,0.00,WUHU216HW,2013-06-04 22:45:00,
2013-06-04 17:50:00,71.9,50.5,29.99,WSW,248,9.5,14.8,47,0.00,,,0.00,WUHU216HW,2013-06-04 22:50:00,
2013-06-04 17:55:00,71.9,50.5,30.00,West,270,8.9,9.5,47,0.00,,,0.00,WUHU216HW,2013-06-04 22:55:00,
2013-06-04 18:00:00,71.9,50.5,30.00,West,270,8.9,9.5,47,0.00,,,0.00,WUHU216HW,2013-06-04 23:00:00,
2013-06-04 18:05:00,72.3,50.8,30.00,WSW,248,14.8,17.0,47,0.00,,,0.00,WUHU216HW,2013-06-04 23:05:00,
2013-06-04 18:10:00,72.6,50.5,30.00,SW,225,13.6,17.0,46,0.00,,,0.00,WUHU216HW,2013-06-04 23:10:00,
2013-06-04 18:15:00,71.9,49.3,30.00,SW,225,17.0,18.6,45,0.00,,,0.00,WUHU216HW,2013-06-04 23:15:00,
2013-06-04 18:20:00,71.9,49.9,30.00,WSW,248,22.9,22.9,46,0.00,,,0.00,WUHU216HW,2013-06-04 23:20:00,
2013-06-04 18:25:00,71.4,48.2,30.00,WSW,248,12.5,22.9,44,0.00,,,0.00,WUHU216HW,2013-06-04 23:25:00,
2013-06-04 18:30:00,71.2,49.2,30.00,West,270,17.0,22.9,46,0.00,,,0.00,WUHU216HW,2013-06-04 23:30:00,
2013-06-04 18:35:00,71.9,49.3,30.00,WSW,248,16.4,19.5,45,0.00,,,0.00,WUHU216HW,2013-06-04 23:35:00,
2013-06-04 18:40:00,71.4,49.4,30.00,WSW,248,15.9,19.5,46,0.00,,,0.00,WUHU216HW,2013-06-04 23:40:00,
2013-06-04 18:45:00,71.4,49.4,30.00,WSW,248,12.8,16.4,46,0.00,,,0.00,WUHU216HW,2013-06-04 23:45:00,
2013-06-04 18:50:00,68.9,48.3,30.00,SSW,203,8.9,12.8,48,0.00,,,0.00,WUHU216HW,2013-06-04 23:50:00,
2013-06-04 18:55:00,68.5,48.0,30.00,SW,225,9.1,12.8,48,0.00,,,0.00,WUHU216HW,2013-06-04 23:55:00,
2013-06-04 19:00:00,67.2,48.0,30.00,West,270,11.4,11.4,50,0.00,,,0.00,WUHU216HW,2013-06-05 00:00:00,
2013-06-04 19:05:00,67.2,48.0,30.00,West,270,11.4,11.4,50,0.00,,,0.00,WUHU216HW,2013-06-05 00:05:00,
2013-06-04 19:10:00,67.2,48.0,30.00,West,270,11.4,11.4,50,0.00,,,0.00,WUHU216HW,2013-06-05 00:10:00,
2013-06-04 19:15:00,67.2,48.0,30.00,West,270,11.4,11.4,50,0.00,,,0.00,WUHU216HW,2013-06-05 00:15:00,
2013-06-04 19:20:00,68.9,49.5,30.00,WSW,248,10.6,14.8,50,0.00,,,0.00,WUHU216HW,2013-06-05 00:20:00,
2013-06-04 19:25:00,68.3,49.5,30.00,WSW,248,6.4,14.8,51,0.00,,,0.00,WUHU216HW,2013-06-05 00:25:00,
2013-06-04 19:30:00,68.3,49.5,30.00,WSW,248,6.4,6.4,51,0.00,,,0.00,WUHU216HW,2013-06-05 00:30:00,
2013-06-04 19:35:00,68.5,50.1,30.00,WSW,248,6.4,6.4,52,0.00,,,0.00,WUHU216HW,2013-06-05 00:35:00,
2013-06-04 19:40:00,68.5,50.1,30.00,WSW,248,6.4,6.4,52,0.00,,,0.00,WUHU216HW,2013-06-05 00:40:00,
2013-06-04 19:45:00,68.5,50.1,30.01,WSW,248,6.4,6.4,52,0.00,,,0.00,WUHU216HW,2013-06-05 00:45:00,
2013-06-04 19:50:00,68.5,50.1,30.01,WSW,248,6.4,6.4,52,0.00,,,0.00,WUHU216HW,2013-06-05 00:50:00,
2013-06-04 20:03:00,70.5,51.0,30.01,WSW,248,10.3,10.3,50,0.00,,,0.00,WUHU216HW,2013-06-05 01:03:00,
2013-06-04 20:08:00,69.6,50.1,30.01,West,270,7.5,10.3,50,0.00,,,0.00,WUHU216HW,2013-06-05 01:08:00,
2013-06-04 20:13:00,67.8,49.3,30.01,WNW,287,13.1,19.8,51,0.00,,,0.00,WUHU216HW,2013-06-05 01:13:00,
2013-06-04 20:18:00,67.8,50.0,30.01,West,261,12.1,19.8,53,0.00,,,0.00,WUHU216HW,2013-06-05 01:18:00,
2013-06-04 20:23:00,65.4,48.8,30.01,WNW,293,7.3,14.5,55,0.00,,,0.00,WUHU216HW,2013-06-05 01:23:00,
2013-06-04 20:28:00,65.4,48.8,30.02,WNW,293,7.3,9.8,55,0.00,,,0.00,WUHU216HW,2013-06-05 01:28:00,
2013-06-04 20:33:00,61.8,48.3,30.02,WNW,282,6.9,7.3,61,0.00,,,0.00,WUHU216HW,2013-06-05 01:33:00,
2013-06-04 20:38:00,61.8,48.3,30.02,West,270,8.9,8.9,61,0.00,,,0.00,WUHU216HW,2013-06-05 01:38:00,
2013-06-04 20:43:00,61.1,47.9,30.02,West,270,5.6,8.9,62,0.00,,,0.00,WUHU216HW,2013-06-05 01:43:00,
2013-06-04 20:48:00,60.9,47.9,30.02,SW,228,7.6,8.6,62,0.00,,,0.00,WUHU216HW,2013-06-05 01:48:00,
2013-06-04 20:53:00,60.9,47.5,30.02,West,270,7.5,8.6,61,0.00,,,0.00,WUHU216HW,2013-06-05 01:53:00,
2013-06-04 20:58:00,60.9,47.1,30.02,WSW,248,6.1,7.5,61,0.00,,,0.00,WUHU216HW,2013-06-05 01:58:00,
2013-06-04 21:03:00,59.7,47.1,30.03,West,270,7.8,9.1,63,0.00,,,0.00,WUHU216HW,2013-06-05 02:03:00,
2013-06-04 21:08:00,58.8,46.6,30.03,WSW,251,6.3,10.6,64,0.00,,,0.00,WUHU216HW,2013-06-05 02:08:00,
2013-06-04 21:13:00,58.6,46.8,30.03,West,270,8.6,10.6,65,0.00,,,0.00,WUHU216HW,2013-06-05 02:13:00,
2013-06-04 21:18:00,57.9,46.5,30.03,West,270,6.8,8.6,66,0.00,,,0.00,WUHU216HW,2013-06-05 02:18:00,
2013-06-04 21:23:00,57.5,46.6,30.03,West,270,7.8,10.9,67,0.00,,,0.00,WUHU216HW,2013-06-05 02:23:00,
2013-06-04 21:28:00,57.3,46.4,30.03,West,270,7.3,10.9,67,0.00,,,0.00,WUHU216HW,2013-06-05 02:28:00,
2013-06-04 21:33:00,56.8,45.9,30.03,WSW,248,7.3,7.8,67,0.00,,,0.00,WUHU216HW,2013-06-05 02:33:00,
2013-06-04 21:38:00,56.1,45.6,30.04,WSW,248,9.4,11.1,68,0.00,,,0.00,WUHU216HW,2013-06-05 02:38:00,
2013-06-04 21:43:00,55.9,45.9,30.04,West,270,4.8,11.1,69,0.00,,,0.00,WUHU216HW,2013-06-05 02:43:00,
2013-06-04 21:48:00,55.5,45.6,30.03,SW,225,8.6,8.6,69,0.00,,,0.00,WUHU216HW,2013-06-05 02:48:00,
2013-06-04 21:53:00,55.2,45.6,30.04,West,270,8.4,8.6,70,0.00,,,0.00,WUHU216HW,2013-06-05 02:53:00,
2013-06-04 21:58:00,55.0,45.8,30.04,WSW,248,8.6,8.9,71,0.00,,,0.00,WUHU216HW,2013-06-05 02:58:00,
2013-06-04 22:03:00,54.8,45.6,30.04,WSW,248,9.8,9.8,71,0.00,,,0.00,WUHU216HW,2013-06-05 03:03:00,
2013-06-04 22:08:00,54.6,45.8,30.05,West,270,12.8,12.8,72,0.00,,,0.00,WUHU216HW,2013-06-05 03:08:00,
2013-06-04 22:13:00,54.5,45.6,30.04,WSW,248,10.0,12.8,72,0.00,,,0.00,WUHU216HW,2013-06-05 03:13:00,
2013-06-04 22:18:00,54.5,45.6,30.05,West,270,15.0,15.0,72,0.00,,,0.00,WUHU216HW,2013-06-05 03:18:00,
2013-06-04 22:23:00,54.6,45.8,30.05,West,270,11.1,15.0,72,0.00,,,0.00,WUHU216HW,2013-06-05 03:23:00,
2013-06-04 22:28:00,54.5,45.6,30.05,WSW,248,6.9,15.0,72,0.00,,,0.00,WUHU216HW,2013-06-05 03:28:00,
2013-06-04 22:33:00,54.5,45.6,30.05,WSW,248,6.9,11.1,72,0.00,,,0.00,WUHU216HW,2013-06-05 03:33:00,
2013-06-04 22:38:00,54.5,46.0,30.05,West,270,6.1,6.9,73,0.00,,,0.00,WUHU216HW,2013-06-05 03:38:00,
2013-06-04 22:43:00,54.3,45.8,30.05,WSW,248,7.5,7.5,73,0.00,,,0.00,WUHU216HW,2013-06-05 03:43:00,
2013-06-04 22:48:00,53.9,45.4,30.05,WSW,256,6.3,7.5,73,0.00,,,0.00,WUHU216HW,2013-06-05 03:48:00,
2013-06-04 22:53:00,53.7,45.6,30.04,West,270,6.6,9.1,74,0.00,,,0.00,WUHU216HW,2013-06-05 03:53:00,
2013-06-04 22:58:00,53.7,45.6,30.05,WSW,248,8.4,9.1,74,0.00,,,0.00,WUHU216HW,2013-06-05 03:58:00,
2013-06-04 23:01:00,53.7,45.6,30.04,WSW,248,10.6,10.6,74,0.00,,,0.00,WUHU216HW,2013-06-05 04:01:00,
2013-06-04 23:02:00,53.7,45.6,30.04,WSW,248,10.6,10.6,74,0.00,,,0.00,WUHU216HW,2013-06-05 04:02:00,
2013-06-04 23:07:00,53.4,45.6,30.04,West,270,6.6,10.6,75,0.00,,,0.00,WUHU216HW,2013-06-05 04:07:00,
2013-06-04 23:12:00,53.4,45.6,30.04,WSW,248,11.6,11.6,75,0.00,,,0.00,WUHU216HW,2013-06-05 04:12:00,
2013-06-04 23:17:00,53.0,45.3,30.05,WSW,248,7.5,11.6,75,0.00,,,0.00,WUHU216HW,2013-06-05 04:17:00,
2013-06-04 23:22:00,52.8,45.5,30.05,WSW,242,6.3,11.6,76,0.00,,,0.00,WUHU216HW,2013-06-05 04:22:00,
2013-06-04 23:27:00,52.5,44.8,30.05,WSW,248,10.3,10.3,75,0.00,,,0.00,WUHU216HW,2013-06-05 04:27:00,
2013-06-04 23:32:00,52.1,44.8,30.05,WSW,248,8.6,10.3,76,0.00,,,0.00,WUHU216HW,2013-06-05 04:32:00,
2013-06-04 23:37:00,52.1,44.8,30.05,WSW,256,6.8,10.3,76,0.00,,,0.00,WUHU216HW,2013-06-05 04:37:00,
2013-06-04 23:42:00,52.1,44.8,30.05,West,270,5.0,8.6,76,0.00,,,0.00,WUHU216HW,2013-06-05 04:42:00,
2013-06-04 23:47:00,52.3,44.9,30.05,WSW,248,7.8,8.6,76,0.00,,,0.00,WUHU216HW,2013-06-05 04:47:00,
2013-06-04 23:52:00,52.1,45.1,30.05,West,261,6.9,8.6,77,0.00,,,0.00,WUHU216HW,2013-06-05 04:52:00,
2013-06-04 23:57:00,52.1,45.1,30.05,WSW,248,8.0,8.4,77,0.00,,,0.00,WUHU216HW,2013-06-05 04:57:00,